When you browse on this site, cookies collect data to enhance your experience and personalize the content and advertising you see.
Visit our Privacy Policy to learn more. By continuing to use the site, you agree to this use of cookies and data.
  • In Hungary
  • List of Countries
  • For 7 days
  • Water Temperature
  • Satellite Maps
  • Weather Map
  • News
  • Weather Widgets
  • user-avatar
    Login

    Hourly Weather Toledo

    Today, 23 February, Saturday

    Time Temperature Precipitation Wind Pressure Humidity
    00:00 -2°C° 0 mm 3 mps 754 mmHg 76%
    01:00 -2°C° 0 mm 3 mps 754 mmHg 78%
    02:00 -2°C° 0 mm 3 mps 753 mmHg 80%
    03:00 -2°C° 0 mm 3 mps 752 mmHg 82%
    04:00 -2°C° 0 mm 3 mps 752 mmHg 82%
    05:00 -3°C° 0 mm 4 mps 751 mmHg 81%
    06:00 -3°C° 0 mm 4 mps 751 mmHg 81%
    07:00 -2°C° 0 mm 4 mps 750 mmHg 77%
    08:00 -1°C° 0 mm 4 mps 750 mmHg 74%
    09:00 0°C° 0 mm 4 mps 749 mmHg 70%
    10:00 +1°C° 0 mm 4 mps 748 mmHg 70%
    11:00 +3°C° 0 mm 4 mps 747 mmHg 69%
    12:00 +4°C° 0 mm 4 mps 746 mmHg 68%
    13:00 +5°C° 0 mm 4 mps 745 mmHg 72%
    14:00 +6°C° 0 mm 4 mps 744 mmHg 76%
    15:00 +7°C° 0 mm 4 mps 744 mmHg 80%
    16:00 +6°C° 0 mm 4 mps 743 mmHg 85%
    17:00 +5°C° 0 mm 4 mps 742 mmHg 90%
    18:00 +5°C° 0 mm 3 mps 741 mmHg 95%
    19:00 +6°C° 0.2 mm 4 mps 740 mmHg 95%
    20:00 +6°C° 0.2 mm 5 mps 738 mmHg 95%
    21:00 +7°C° 0.2 mm 5 mps 737 mmHg 96%
    22:00 +8°C° 1 mm 6 mps 736 mmHg 94%
    23:00 +9°C° 1 mm 7 mps 734 mmHg 93%

    Tomorrow, 24 February, Sunday

    Time Temperature Precipitation Wind Pressure Humidity
    00:00 +10°C° 1 mm 7 mps 732 mmHg 92%
    01:00 +11°C° 1 mm 8 mps 731 mmHg 91%
    02:00 +12°C° 1 mm 8 mps 730 mmHg 90%
    03:00 +12°C° 1 mm 9 mps 729 mmHg 89%
    04:00 +11°C° 0 mm 9 mps 728 mmHg 84%
    05:00 +10°C° 0 mm 8 mps 727 mmHg 80%
    06:00 +7°C° 0 mm 8 mps 726 mmHg 75%
    07:00 +6°C° 0 mm 10 mps 727 mmHg 74%
    08:00 +4°C° 0 mm 11 mps 727 mmHg 72%
    09:00 +3°C° 0 mm 13 mps 727 mmHg 71%
    10:00 +1°C° 0.1 mm 13 mps 728 mmHg 69%
    11:00 +1°C° 0.1 mm 14 mps 729 mmHg 66%
    12:00 0°C° 0.1 mm 14 mps 730 mmHg 64%
    13:00 0°C° 0.1 mm 14 mps 731 mmHg 64%
    14:00 -1°C° 0.1 mm 14 mps 732 mmHg 64%
    15:00 -2°C° 0.1 mm 14 mps 733 mmHg 65%
    16:00 -4°C° 0 mm 13 mps 735 mmHg 65%
    17:00 -5°C° 0 mm 13 mps 736 mmHg 65%
    18:00 -7°C° 0 mm 13 mps 737 mmHg 65%
    19:00 -7°C° 0 mm 13 mps 738 mmHg 63%
    20:00 -9°C° 0 mm 13 mps 739 mmHg 62%
    21:00 -10°C° 0 mm 13 mps 740 mmHg 60%
    22:00 -10°C° 0 mm 13 mps 741 mmHg 59%
    23:00 -10°C° 0 mm 13 mps 742 mmHg 58%

    Day after tomorrow, 25 February, Monday

    Time Temperature Precipitation Wind Pressure Humidity
    00:00 -11°C° 0 mm 12 mps 743 mmHg 56%
    01:00 -11°C° 0 mm 12 mps 744 mmHg 56%
    02:00 -11°C° 0 mm 12 mps 745 mmHg 56%
    03:00 -12°C° 0 mm 11 mps 746 mmHg 56%
    04:00 -13°C° 0 mm 11 mps 747 mmHg 56%
    05:00 -13°C° 0 mm 10 mps 748 mmHg 56%
    06:00 -14°C° 0 mm 10 mps 749 mmHg 56%
    07:00 -14°C° 0 mm 9 mps 750 mmHg 54%
    08:00 -14°C° 0 mm 9 mps 751 mmHg 53%
    09:00 -12°C° 0 mm 9 mps 752 mmHg 51%
    10:00 -12°C° 0 mm 8 mps 753 mmHg 48%
    11:00 -11°C° 0 mm 8 mps 753 mmHg 46%
    12:00 -10°C° 0 mm 8 mps 754 mmHg 43%
    13:00 -8°C° 0 mm 7 mps 754 mmHg 42%
    14:00 -8°C° 0 mm 7 mps 754 mmHg 42%
    15:00 -8°C° 0 mm 7 mps 754 mmHg 41%
    16:00 -8°C° 0 mm 6 mps 755 mmHg 43%
    17:00 -9°C° 0 mm 6 mps 755 mmHg 45%
    18:00 -8°C° 0 mm 5 mps 755 mmHg 47%
    19:00 -10°C° 0 mm 5 mps 756 mmHg 48%
    20:00 -10°C° 0 mm 5 mps 756 mmHg 49%
    21:00 -9°C° 0 mm 4 mps 756 mmHg 51%
    22:00 -9°C° 0 mm 4 mps 757 mmHg 55%
    23:00 -10°C° 0 mm 4 mps 757 mmHg 59%

    26 February, Tuesday

    Time Temperature Precipitation Wind Pressure Humidity
    00:00 -10°C° 0 mm 4 mps 757 mmHg 63%
    01:00 -9°C° 0.1 mm 3 mps 757 mmHg 65%
    02:00 -9°C° 0.1 mm 3 mps 757 mmHg 67%
    03:00 -9°C° 0.1 mm 3 mps 757 mmHg 69%
    04:00 -8°C° 0.1 mm 2 mps 758 mmHg 69%
    05:00 -8°C° 0.1 mm 2 mps 758 mmHg 70%
    06:00 -8°C° 0.1 mm 2 mps 758 mmHg 70%
    07:00 -8°C° 0 mm 2 mps 759 mmHg 66%
    08:00 -8°C° 0 mm 2 mps 759 mmHg 63%
    09:00 -8°C° 0 mm 2 mps 759 mmHg 59%
    10:00 -7°C° 0 mm 2 mps 759 mmHg 55%
    11:00 -6°C° 0 mm 2 mps 759 mmHg 50%
    12:00 -5°C° 0 mm 2 mps 758 mmHg 46%
    13:00 -5°C° 0 mm 2 mps 758 mmHg 47%
    14:00 -4°C° 0 mm 2 mps 757 mmHg 47%
    15:00 -5°C° 0 mm 3 mps 757 mmHg 47%
    16:00 -5°C° 0 mm 3 mps 756 mmHg 53%
    17:00 -7°C° 0 mm 4 mps 756 mmHg 58%
    18:00 -7°C° 0 mm 5 mps 756 mmHg 64%
    19:00 -7°C° 0 mm 5 mps 756 mmHg 66%
    20:00 -7°C° 0 mm 5 mps 755 mmHg 68%
    21:00 -8°C° 0 mm 5 mps 755 mmHg 69%
    22:00 -7°C° 0 mm 5 mps 754 mmHg 68%
    23:00 -7°C° 0 mm 5 mps 754 mmHg 67%

    27 February, Wednesday

    Time Temperature Precipitation Wind Pressure Humidity
    00:00 -7°C° 0 mm 5 mps 753 mmHg 66%
    01:00 -7°C° 0 mm 5 mps 752 mmHg 65%
    02:00 -7°C° 0 mm 4 mps 751 mmHg 63%
    03:00 -5°C° 0 mm 4 mps 750 mmHg 61%
    04:00 -5°C° 0 mm 4 mps 750 mmHg 63%
    05:00 -4°C° 0 mm 4 mps 749 mmHg 64%
    06:00 -4°C° 0 mm 4 mps 748 mmHg 65%
    07:00 -3°C° 0 mm 4 mps 747 mmHg 65%
    08:00 -1°C° 0 mm 5 mps 747 mmHg 65%
    09:00 0°C° 0 mm 5 mps 746 mmHg 66%
    10:00 0°C° 0.4 mm 5 mps 746 mmHg 74%
    11:00 +1°C° 0.4 mm 5 mps 745 mmHg 82%
    12:00 +1°C° 0.4 mm 5 mps 744 mmHg 90%
    13:00 +1°C° 0.5 mm 5 mps 744 mmHg 89%
    14:00 +1°C° 0.5 mm 6 mps 744 mmHg 88%
    15:00 +1°C° 0.5 mm 6 mps 744 mmHg 87%
    16:00 0°C° 0 mm 5 mps 745 mmHg 82%
    17:00 -2°C° 0 mm 5 mps 746 mmHg 76%
    18:00 -4°C° 0 mm 5 mps 746 mmHg 71%
    19:00 -5°C° 0 mm 5 mps 747 mmHg 70%
    20:00 -6°C° 0 mm 5 mps 748 mmHg 68%
    21:00 -8°C° 0 mm 6 mps 749 mmHg 67%
    22:00 -8°C° 0 mm 5 mps 749 mmHg 66%
    23:00 -8°C° 0 mm 5 mps 749 mmHg 65%

    28 February, Thursday

    Time Temperature Precipitation Wind Pressure Humidity
    00:00 -8°C° 0 mm 4 mps 750 mmHg 64%
    01:00 -8°C° 0 mm 4 mps 750 mmHg 63%
    02:00 -8°C° 0 mm 4 mps 750 mmHg 63%
    03:00 -8°C° 0 mm 3 mps 750 mmHg 62%
    04:00 -8°C° 0 mm 3 mps 750 mmHg 62%
    05:00 -7°C° 0 mm 2 mps 750 mmHg 62%
    06:00 -7°C° 0 mm 2 mps 751 mmHg 62%
    07:00 -7°C° 0 mm 2 mps 751 mmHg 60%
    08:00 -4°C° 0 mm 1 mps 751 mmHg 57%
    09:00 -4°C° 0 mm 1 mps 751 mmHg 55%
    10:00 -3°C° 0 mm 1 mps 751 mmHg 51%
    11:00 -2°C° 0 mm 1 mps 751 mmHg 48%
    12:00 -2°C° 0 mm 1 mps 750 mmHg 45%
    13:00 -1°C° 0 mm 1 mps 750 mmHg 45%
    14:00 -2°C° 0 mm 0 mps 749 mmHg 44%
    15:00 -2°C° 0 mm 0 mps 749 mmHg 43%
    16:00 -1°C° 0 mm 1 mps 749 mmHg 46%
    17:00 -1°C° 0 mm 1 mps 749 mmHg 49%
    18:00 -1°C° 0 mm 1 mps 749 mmHg 52%
    19:00 -1°C° 0 mm 1 mps 749 mmHg 55%
    20:00 -2°C° 0 mm 1 mps 749 mmHg 57%
    21:00 -2°C° 0 mm 1 mps 749 mmHg 60%
    22:00 -2°C° 0 mm 1 mps 749 mmHg 62%
    23:00 -2°C° 0 mm 1 mps 749 mmHg 64%
    Show more